Location: Northcutt
(34.7304°N, 84.4305°W)
Time: 03:55:26
(UTC+00:00)

Vanguard 2 - Pass Details

Date: 09 October 2022
Orbit: 553 x 2933 km, 32.9° (Epoch: 05 December)

Event Time Altitude Azimuth Distance (km) Brightness Sun altitude
Rises 14:17:38 0° 199° (SSW) 3,183 10.9 29.7°
Reaches altitude 10° 14:20:27 10° 180° (S) 2,511 10.7 30.2°
Maximum altitude 14:24:34 19° 136° (SE) 2,332 11.9 30.9°
Drops below altitude 10° 14:30:03 10° 96° (E) 3,503 11.9 31.8°
Sets 14:34:58 0° 81° (E) 4,996 12.2 32.6°
